sat.trackr.live / text

‹ back to catalog

STARLINK-1524

NORAD 46047 · 2020-055W

PAYLOAD ACTIVE UNKNOWN

§ Identity

Operator
Country
US
Launch date
2020-08-07
Launch site
AFETR
Launch vehicle
Mass (kg)
RCS (m²)

Purposes: comms

External: N2YO · Heavens-Above · Gunter

§ Orbital elements

Epoch: 2026-05-25T02:40:15.779136Z

Period
94.01 min
Inclination
53.1605°
Eccentricity
0.0001332
Mean motion
15.31701433 rev/d
Perigee alt
469.8 km
Apogee alt
471.6 km
Semi-major
6,848.9 km
B*
4.3868e-5
RAAN
118.5802°
Arg perigee
102.3416°
Mean anomaly
257.7734°
Rev number
32,077

§ Raw data

STARLINK-15241 46047U 20055W   26145.11129374  .00000996  00000+0  43868-4 0  99952 46047  53.1605 118.5802 0001332 102.3416 257.7734 15.31701433320776

JSON: /api/v1/satellites/46047 · /tle

For live sub-satellite position, see the globe view (requires WebGL).

§ Visibility from observer

Set your observer location to see the next 7 days of passes ≥ 10°. The values pass through the URL so the page stays shareable.

No JS? Fill the form by hand. The geolocation button needs JavaScript.